Location: ??
(34.9170°N, 135.5016°E)
Time: 18:13:29
(UTC+00:00)

Vanguard 2 Rocket - Visible Passes

Search period start: 04 March 2021 00:00
Search period end: 14 March 2021 00:00
Orbit: 554 x 3325 km, 32.9° (Epoch: 03 March)

Date Brightness Start Highest point End Pass type
(mag) Time Alt. Az. Time Alt. Az. Time Alt. Az.
04 Mar 8.8 17:58:58 28° ESE 17:58:58 28° ESE 18:03:47 10° E visible
04 Mar 7.9 20:04:46 24° WSW 20:09:32 78° S 20:22:00 10° E visible
05 Mar 7.2 19:08:30 60° SSW 19:09:35 69° SSE 19:19:42 10° E visible
06 Mar 8.3 18:12:15 37° ESE 18:12:15 37° ESE 18:17:54 10° E visible
06 Mar 7.8 20:18:02 18° W 20:23:32 80° S 20:35:57 10° E visible
07 Mar 9.6 17:15:58 12° E 17:15:58 12° E 17:16:31 10° E visible
07 Mar 7.2 19:21:46 52° WSW 19:23:31 76° S 19:33:41 10° E visible
08 Mar 7.7 18:25:29 49° ESE 18:25:29 49° ESE 18:31:55 10° E visible
08 Mar 7.9 20:31:17 13° W 20:37:32 75° S 20:49:49 10° ESE visible
09 Mar 9.3 17:29:13 16° E 17:29:13 16° E 17:30:40 10° E visible
09 Mar 7.3 19:35:01 40° W 19:37:31 77° S 19:47:38 10° E visible
10 Mar 7.2 18:38:45 62° ESE 18:38:45 62° ESE 18:45:54 10° E visible
10 Mar 8.0 20:44:55 10° W 20:51:31 64° SSW 21:03:30 10° ESE visible
11 Mar 9.0 17:42:30 20° E 17:42:30 20° E 17:44:42 10° E visible
11 Mar 7.4 19:48:18 30° W 19:51:32 70° S 20:01:30 10° ESE visible
12 Mar 6.8 18:52:03 73° SSE 18:52:03 73° SSE 18:59:51 10° E visible
13 Mar 8.7 17:55:49 24° E 17:55:49 24° E 17:58:42 10° E visible
13 Mar 7.5 20:01:38 22° W 20:05:32 57° SSW 20:15:09 10° ESE visible
